,,,PA_Meas_PMT16A,,PR_Meas_QMR101_102,,RH_Meas_QMH101,,SR_Meas_QMS101,,TA_Meas_QMH101,,GenWind,,GenWind,
date,time,status,PA,status,PR,status,RH,status,SR,status,TA,status,DirAvg,status,SpdAvg,
2014-02-06, 00:00:04,VALID,1007.49,VALID,0,VALID,87.0327,VALID,0,VALID,23.4407,VALID,287,VALID,0.00117188,
2014-02-06, 00:01:04,VALID,1007.46,VALID,0,VALID,87.1929,VALID,0,VALID,23.4194,VALID,292,VALID,0.666016,
2014-02-06, 00:02:04,VALID,1007.51,VALID,0,VALID,87.0175,VALID,0,VALID,23.4389,VALID,289,VALID,0.266016,
2014-02-06, 00:03:04,VALID,1007.51,VALID,0,VALID,86.8726,VALID,0,VALID,23.4797,VALID,289,VALID,0.0273438,
2014-02-06, 00:04:04,VALID,1007.5,VALID,0,VALID,86.7506,VALID,0,VALID,23.4992,VALID,320,VALID,0,
2014-02-06, 00:05:04,VALID,1007.5,VALID,0,VALID,86.4303,VALID,0,VALID,23.5186,VALID,320,VALID,0,
2014-02-06, 00:06:04,VALID,1007.46,VALID,0,VALID,86.4455,VALID,0,VALID,23.5169,VALID,320,VALID,0,
2014-02-06, 00:07:04,VALID,1007.48,VALID,0,VALID,86.3617,VALID,0,VALID,23.5186,VALID,320,VALID,0,
2014-02-06, 00:08:04,VALID,1007.48,VALID,0,VALID,86.3769,VALID,0,VALID,23.5381,VALID,320,VALID,0.0117188,
2014-02-06, 00:09:04,VALID,1007.49,VALID,0,VALID,86.3159,VALID,0,VALID,23.5169,VALID,331,VALID,0.351172,
2014-02-06, 00:10:04,VALID,1007.5,VALID,0,VALID,86.3388,VALID,0,VALID,23.5169,VALID,328,VALID,0.619141,
2014-02-06, 00:11:04,VALID,1007.47,VALID,0,VALID,86.2625,VALID,0.112112,VALID,23.4974,VALID,334,VALID,0.772266,
2014-02-06, 00:12:04,VALID,1007.47,VALID,0,VALID,86.4379,VALID,0.112112,VALID,23.5169,VALID,305,VALID,0.923437,
2014-02-06, 00:13:04,VALID,1007.45,VALID,0,VALID,86.1863,VALID,0,VALID,23.5169,VALID,328,VALID,0.333984,
2014-02-06, 00:14:04,VALID,1007.45,VALID,0,VALID,86.171,VALID,0.112112,VALID,23.4974,VALID,328,VALID,0.0140625,
2014-02-06, 00:15:04,VALID,1007.45,VALID,0,VALID,86.2473,VALID,0.112112,VALID,23.4974,VALID,328,VALID,0.0585938,
2014-02-06, 00:16:04,VALID,1007.47,VALID,0,VALID,86.2549,VALID,0,VALID,23.4779,VALID,328,VALID,0,
2014-02-06, 00:17:04,VALID,1007.42,VALID,0,VALID,86.415,VALID,0,VALID,23.4584,VALID,326,VALID,0,
2014-02-06, 00:18:04,VALID,1007.41,VALID,0,VALID,86.4684,VALID,0,VALID,23.4602,VALID,297,VALID,0,
2014-02-06, 00:19:04,VALID,1007.41,VALID,0,VALID,86.5218,VALID,0,VALID,23.4389,VALID,297,VALID,0,
2014-02-06, 00:20:04,VALID,1007.39,VALID,0,VALID,86.4913,VALID,0,VALID,23.4407,VALID,339,VALID,0,
2014-02-06, 00:21:04,VALID,1007.39,VALID,0,VALID,86.5065,VALID,0,VALID,23.4407,VALID,339,VALID,0,
2014-02-06, 00:22:04,VALID,1007.36,VALID,0,VALID,86.5065,VALID,0,VALID,23.3805,VALID,339,VALID,0,
2014-02-06, 00:23:04,VALID,1007.35,VALID,0,VALID,86.8192,VALID,0,VALID,23.3805,VALID,330,VALID,0.430078,
2014-02-06, 00:24:04,VALID,1007.32,VALID,0,VALID,86.7582,VALID,0.112112,VALID,23.3823,VALID,330,VALID,0,
2014-02-06, 00:25:04,VALID,1007.31,VALID,0,VALID,86.7887,VALID,0,VALID,23.3415,VALID,330,VALID,0.385156,
2014-02-06, 00:26:04,VALID,1007.29,VALID,0,VALID,87.048,VALID,0,VALID,23.322,VALID,330,VALID,0.525391,
2014-02-06, 00:27:04,VALID,1007.31,VALID,0,VALID,87.0327,VALID,0,VALID,23.322,VALID,325,VALID,0.837109,
2014-02-06, 00:28:04,VALID,1007.28,VALID,0,VALID,87.0632,VALID,0,VALID,23.322,VALID,328,VALID,0.303125,
2014-02-06, 00:29:04,VALID,1007.27,VALID,0,VALID,86.9565,VALID,0,VALID,23.3026,VALID,328,VALID,0,
2014-02-06, 00:30:04,VALID,1007.26,VALID,0,VALID,87.0937,VALID,0,VALID,23.3238,VALID,328,VALID,0,
2014-02-06, 00:31:04,VALID,1007.25,VALID,0,VALID,87.2996,VALID,0,VALID,23.3043,VALID,328,VALID,0,
2014-02-06, 00:32:04,VALID,1007.24,VALID,0,VALID,87.231,VALID,0,VALID,23.3026,VALID,328,VALID,0,
2014-02-06, 00:33:04,VALID,1007.23,VALID,0,VALID,87.2005,VALID,0,VALID,23.3043,VALID,328,VALID,0,
2014-02-06, 00:34:04,VALID,1007.22,VALID,0,VALID,87.1852,VALID,0,VALID,23.3026,VALID,328,VALID,0,
2014-02-06, 00:35:04,VALID,1007.22,VALID,0,VALID,87.2157,VALID,0,VALID,23.2831,VALID,333,VALID,0.352344,
2014-02-06, 00:36:04,VALID,1007.21,VALID,0,VALID,87.2615,VALID,0,VALID,23.2636,VALID,339,VALID,0,
2014-02-06, 00:37:04,VALID,1007.2,VALID,0,VALID,87.2462,VALID,0,VALID,23.2441,VALID,339,VALID,0,
2014-02-06, 00:38:04,VALID,1007.16,VALID,0,VALID,87.4293,VALID,0,VALID,23.2246,VALID,317,VALID,0,
2014-02-06, 00:39:04,VALID,1007.15,VALID,0,VALID,87.475,VALID,0.112112,VALID,23.2246,VALID,317,VALID,0,
2014-02-06, 00:40:04,VALID,1007.1,VALID,0,VALID,87.5513,VALID,0.112112,VALID,23.1857,VALID,317,VALID,0.401172,
2014-02-06, 00:41:04,VALID,1007.07,VALID,0,VALID,87.658,VALID,0,VALID,23.1662,VALID,317,VALID,0.00117188,
2014-02-06, 00:42:04,VALID,1007.07,VALID,0,VALID,87.78,VALID,0.112112,VALID,23.1857,VALID,317,VALID,0.227344,
2014-02-06, 00:43:04,VALID,1007.05,VALID,0,VALID,87.8411,VALID,0,VALID,23.1679,VALID,318,VALID,0.282031,
2014-02-06, 00:44:04,VALID,1007.08,VALID,0,VALID,87.8487,VALID,0,VALID,23.1467,VALID,320,VALID,0.131641,
2014-02-06, 00:45:04,VALID,1007.09,VALID,0,VALID,88.047,VALID,0,VALID,23.1467,VALID,320,VALID,0.219922,
2014-02-06, 00:46:04,VALID,1007.07,VALID,0,VALID,88.1537,VALID,0,VALID,23.1467,VALID,320,VALID,0.267188,
2014-02-06, 00:47:04,VALID,1007.08,VALID,0,VALID,88.1766,VALID,0,VALID,23.1272,VALID,320,VALID,0.242578,
2014-02-06, 00:48:04,VALID,1007.08,VALID,0,VALID,88.1003,VALID,0,VALID,23.1272,VALID,320,VALID,0,
2014-02-06, 00:49:04,VALID,1007.09,VALID,0,VALID,88.1308,VALID,0,VALID,23.1272,VALID,320,VALID,0.275,
2014-02-06, 00:50:04,VALID,1007.07,VALID,0,VALID,88.2452,VALID,0.112112,VALID,23.1272,VALID,320,VALID,0.270312,
2014-02-06, 00:51:04,VALID,1007.05,VALID,0,VALID,88.0698,VALID,0,VALID,23.129,VALID,320,VALID,0,
2014-02-06, 00:52:04,VALID,1007.05,VALID,0,VALID,88.2681,VALID,0,VALID,23.1095,VALID,320,VALID,0.166797,
2014-02-06, 00:53:04,VALID,1007.03,VALID,0,VALID,88.2757,VALID,0,VALID,23.0688,VALID,320,VALID,0.198047,
2014-02-06, 00:54:04,VALID,1007.06,VALID,0,VALID,88.3672,VALID,0,VALID,23.0688,VALID,320,VALID,0,
2014-02-06, 00:55:04,VALID,1007.05,VALID,0,VALID,88.4359,VALID,0,VALID,23.0705,VALID,320,VALID,0,
2014-02-06, 00:56:04,VALID,1007.04,VALID,0,VALID,88.6418,VALID,0,VALID,23.0493,VALID,319,VALID,0,
2014-02-06, 00:57:04,VALID,1007.06,VALID,0,VALID,88.6418,VALID,0,VALID,23.0493,VALID,320,VALID,0,
2014-02-06, 00:58:04,VALID,1007.05,VALID,0,VALID,88.5274,VALID,0,VALID,23.0298,VALID,320,VALID,0,
2014-02-06, 00:59:04,VALID,1007.04,VALID,0,VALID,88.6494,VALID,0,VALID,23.0316,VALID,320,VALID,0,
2014-02-06, 01:00:04,VALID,1007.06,VALID,0,VALID,88.8324,VALID,0,VALID,23.0103,VALID,320,VALID,0.297266,
2014-02-06, 01:01:04,VALID,1007.06,VALID,0,VALID,88.7409,VALID,0.112112,VALID,22.9909,VALID,320,VALID,0,
2014-02-06, 01:02:04,VALID,1007.07,VALID,0,VALID,88.9163,VALID,0,VALID,22.9909,VALID,320,VALID,0,
2014-02-06, 01:03:04,VALID,1007.05,VALID,0,VALID,89.0078,VALID,0,VALID,23.0121,VALID,302,VALID,0.226563,
2014-02-06, 01:04:04,VALID,1007.06,VALID,0,VALID,89.1374,VALID,0,VALID,23.0121,VALID,290,VALID,0,
2014-02-06, 01:05:04,VALID,1007.05,VALID,0,VALID,88.9239,VALID,0.112112,VALID,23.0316,VALID,291,VALID,0,
2014-02-06, 01:06:04,VALID,1007.02,VALID,0,VALID,88.9925,VALID,0,VALID,23.0103,VALID,290,VALID,0.0394531,
2014-02-06, 01:07:04,VALID,1007.01,VALID,0,VALID,89.1908,VALID,0,VALID,23.0103,VALID,287,VALID,0.482812,
2014-02-06, 01:08:04,VALID,1007,VALID,0,VALID,89.0841,VALID,0,VALID,23.0705,VALID,253,VALID,0.324609,
2014-02-06, 01:09:04,VALID,1006.99,VALID,0,VALID,88.7866,VALID,0,VALID,23.0688,VALID,253,VALID,0,
2014-02-06, 01:10:04,VALID,1006.97,VALID,0,VALID,88.9773,VALID,0,VALID,23.0883,VALID,253,VALID,0.221094,
2014-02-06, 01:11:04,VALID,1006.98,VALID,0,VALID,88.6875,VALID,0,VALID,23.1077,VALID,253,VALID,0,
2014-02-06, 01:12:04,VALID,1006.98,VALID,0,VALID,88.4892,VALID,0.112112,VALID,23.0883,VALID,253,VALID,0.142578,
2014-02-06, 01:13:04,VALID,1007,VALID,0,VALID,88.3444,VALID,0,VALID,23.0883,VALID,253,VALID,0,
2014-02-06, 01:14:04,VALID,1006.95,VALID,0,VALID,88.2986,VALID,0.112112,VALID,23.0688,VALID,253,VALID,0,
2014-02-06, 01:15:04,VALID,1006.97,VALID,0,VALID,88.2376,VALID,0.112112,VALID,23.0298,VALID,253,VALID,0,
2014-02-06, 01:16:04,VALID,1006.98,VALID,0,VALID,88.4206,VALID,0,VALID,22.9909,VALID,253,VALID,0,
2014-02-06, 01:17:04,VALID,1006.98,VALID,0,VALID,88.4511,VALID,0,VALID,22.9926,VALID,253,VALID,0,
2014-02-06, 01:18:04,VALID,1006.96,VALID,0,VALID,88.718,VALID,0,VALID,22.9519,VALID,253,VALID,0,
2014-02-06, 01:19:04,VALID,1006.93,VALID,0,VALID,89.0383,VALID,0,VALID,22.9731,VALID,253,VALID,0.01875,
2014-02-06, 01:20:04,VALID,1006.93,VALID,0,VALID,88.9697,VALID,0,VALID,22.9342,VALID,253,VALID,0.0445312,
2014-02-06, 01:21:04,VALID,1006.94,VALID,0,VALID,89.3204,VALID,0,VALID,22.9536,VALID,298,VALID,0.427734,
2014-02-06, 01:22:04,VALID,1006.92,VALID,0,VALID,89.1603,VALID,0,VALID,22.9731,VALID,321,VALID,0.337891,
2014-02-06, 01:23:04,VALID,1006.89,VALID,0,VALID,89.1069,VALID,0,VALID,22.9731,VALID,301,VALID,0.592188,
2014-02-06, 01:24:04,VALID,1006.92,VALID,0,VALID,89.0154,VALID,0,VALID,22.9731,VALID,318,VALID,0.798437,
2014-02-06, 01:25:04,VALID,1006.88,VALID,0,VALID,89.1527,VALID,0,VALID,22.9926,VALID,320,VALID,0.296484,
2014-02-06, 01:26:04,VALID,1006.9,VALID,0,VALID,89.2442,VALID,0,VALID,23.0316,VALID,293,VALID,0.400781,
2014-02-06, 01:27:04,VALID,1006.92,VALID,0,VALID,88.9773,VALID,0,VALID,23.0511,VALID,293,VALID,0.153906,
2014-02-06, 01:28:04,VALID,1006.91,VALID,0,VALID,88.84,VALID,0,VALID,23.0511,VALID,292,VALID,0.676953,
2014-02-06, 01:29:04,VALID,1006.9,VALID,0,VALID,88.9468,VALID,0,VALID,23.0688,VALID,291,VALID,0.728125,
2014-02-06, 01:30:04,VALID,1006.89,VALID,0,VALID,88.474,VALID,0,VALID,23.09,VALID,290,VALID,0.119922,
2014-02-06, 01:31:04,VALID,1006.91,VALID,0,VALID,88.4587,VALID,0,VALID,23.0883,VALID,308,VALID,0.186328,
2014-02-06, 01:32:04,VALID,1006.9,VALID,0,VALID,88.6113,VALID,0,VALID,23.1077,VALID,307,VALID,0.147266,
2014-02-06, 01:33:04,VALID,1006.9,VALID,0,VALID,88.3901,VALID,0.112112,VALID,23.1077,VALID,307,VALID,0,
2014-02-06, 01:34:04,VALID,1006.92,VALID,0,VALID,88.3291,VALID,0.112112,VALID,23.1077,VALID,307,VALID,0,
2014-02-06, 01:35:04,VALID,1006.92,VALID,0,VALID,88.3062,VALID,0,VALID,23.1095,VALID,307,VALID,0.0582031,
2014-02-06, 01:36:04,VALID,1006.9,VALID,0,VALID,88.2528,VALID,0,VALID,23.1077,VALID,307,VALID,0.139062,
2014-02-06, 01:37:04,VALID,1006.91,VALID,0,VALID,88.413,VALID,0,VALID,23.1095,VALID,307,VALID,0.637891,
2014-02-06, 01:38:04,VALID,1006.91,VALID,0,VALID,88.352,VALID,0,VALID,23.0883,VALID,307,VALID,0.0125,
2014-02-06, 01:39:04,VALID,1006.9,VALID,0,VALID,88.352,VALID,0,VALID,23.0883,VALID,307,VALID,0,
2014-02-06, 01:40:04,VALID,1006.9,VALID,0,VALID,88.1995,VALID,0,VALID,23.09,VALID,307,VALID,0,
2014-02-06, 01:41:04,VALID,1006.88,VALID,0,VALID,88.2528,VALID,0,VALID,23.09,VALID,307,VALID,0,
2014-02-06, 01:42:04,VALID,1006.88,VALID,0,VALID,88.3215,VALID,0,VALID,23.0493,VALID,307,VALID,0,
2014-02-06, 01:43:04,VALID,1006.86,VALID,0,VALID,88.2452,VALID,0,VALID,23.0316,VALID,307,VALID,0,
2014-02-06, 01:44:04,VALID,1006.87,VALID,0,VALID,88.2757,VALID,0.112112,VALID,22.9909,VALID,307,VALID,0.142969,
2014-02-06, 01:45:04,VALID,1006.85,VALID,0,VALID,88.5426,VALID,0,VALID,22.9714,VALID,307,VALID,0.164063,
2014-02-06, 01:46:04,VALID,1006.87,VALID,0,VALID,88.6875,VALID,0,VALID,22.9714,VALID,316,VALID,0.0285156,
2014-02-06, 01:47:04,VALID,1006.86,VALID,0,VALID,88.9773,VALID,0,VALID,22.9714,VALID,316,VALID,0.763281,
2014-02-06, 01:48:04,VALID,1006.86,VALID,0,VALID,88.9315,VALID,0,VALID,22.9909,VALID,315,VALID,0.136328,
2014-02-06, 01:49:04,VALID,1006.88,VALID,0,VALID,88.8934,VALID,0,VALID,23.0316,VALID,316,VALID,0.427344,
2014-02-06, 01:50:04,VALID,1006.88,VALID,0,VALID,88.7714,VALID,0,VALID,23.0298,VALID,316,VALID,0.0605469,
2014-02-06, 01:51:04,VALID,1006.9,VALID,0,VALID,88.6723,VALID,0,VALID,23.0493,VALID,310,VALID,0.386719,
2014-02-06, 01:52:04,VALID,1006.88,VALID,0,VALID,88.4282,VALID,0,VALID,23.0493,VALID,311,VALID,0.00820312,
2014-02-06, 01:53:04,VALID,1006.91,VALID,0,VALID,88.2223,VALID,0,VALID,23.0705,VALID,311,VALID,0,
2014-02-06, 01:54:04,VALID,1006.9,VALID,0,VALID,88.2681,VALID,0,VALID,23.0705,VALID,309,VALID,0.0742188,
2014-02-06, 01:55:04,VALID,1006.88,VALID,0,VALID,88.0851,VALID,0,VALID,23.0511,VALID,309,VALID,0.0613281,
2014-02-06, 01:56:04,VALID,1006.86,VALID,0,VALID,88.1995,VALID,0.112112,VALID,23.0511,VALID,308,VALID,0,
2014-02-06, 01:57:04,VALID,1006.87,VALID,0,VALID,88.1766,VALID,0.112112,VALID,23.0298,VALID,307,VALID,0,
2014-02-06, 01:58:04,VALID,1006.89,VALID,0,VALID,88.2605,VALID,0.112112,VALID,23.0103,VALID,307,VALID,0.214062,
2014-02-06, 01:59:04,VALID,1006.86,VALID,0,VALID,88.3215,VALID,0,VALID,23.0103,VALID,307,VALID,0.0554687,
2014-02-06, 02:00:04,VALID,1006.84,VALID,0,VALID,88.4282,VALID,0.112112,VALID,23.0298,VALID,307,VALID,0.114844,
2014-02-06, 02:01:04,VALID,1006.87,VALID,0,VALID,88.3367,VALID,0.112112,VALID,23.0298,VALID,307,VALID,0,
2014-02-06, 02:02:04,VALID,1006.85,VALID,0,VALID,88.413,VALID,0,VALID,23.0298,VALID,297,VALID,0.124219,
2014-02-06, 02:03:04,VALID,1006.85,VALID,0,VALID,88.3215,VALID,0.112112,VALID,23.0298,VALID,297,VALID,0,
2014-02-06, 02:04:04,VALID,1006.86,VALID,0,VALID,88.2376,VALID,0.112112,VALID,23.0298,VALID,297,VALID,0,
2014-02-06, 02:05:04,VALID,1006.85,VALID,0,VALID,88.169,VALID,0,VALID,23.0298,VALID,297,VALID,0,
2014-02-06, 02:06:04,VALID,1006.82,VALID,0,VALID,88.23,VALID,0,VALID,23.0511,VALID,296,VALID,0.303906,
2014-02-06, 02:07:04,VALID,1006.85,VALID,0,VALID,88.23,VALID,0,VALID,23.0298,VALID,294,VALID,0.028125,
2014-02-06, 02:08:04,VALID,1006.87,VALID,0,VALID,88.1537,VALID,0,VALID,23.0316,VALID,293,VALID,0,
2014-02-06, 02:09:04,VALID,1006.86,VALID,0,VALID,88.1232,VALID,0,VALID,22.9909,VALID,296,VALID,0.199609,
2014-02-06, 02:10:04,VALID,1006.87,VALID,0,VALID,88.2071,VALID,0,VALID,22.9714,VALID,301,VALID,0.374219,
2014-02-06, 02:11:04,VALID,1006.83,VALID,0,VALID,88.1232,VALID,0,VALID,22.9714,VALID,301,VALID,0,
2014-02-06, 02:12:04,VALID,1006.83,VALID,0,VALID,88.1995,VALID,0,VALID,22.9536,VALID,301,VALID,0,
2014-02-06, 02:13:04,VALID,1006.84,VALID,0,VALID,88.3139,VALID,0,VALID,22.9324,VALID,301,VALID,0.213281,
2014-02-06, 02:14:04,VALID,1006.85,VALID,0,VALID,88.474,VALID,0,VALID,22.9129,VALID,301,VALID,0.110156,
2014-02-06, 02:15:04,VALID,1006.85,VALID,0,VALID,88.5655,VALID,0.112112,VALID,22.8935,VALID,301,VALID,0,
2014-02-06, 02:16:04,VALID,1006.87,VALID,0,VALID,88.5274,VALID,0,VALID,22.8952,VALID,301,VALID,0,
2014-02-06, 02:17:04,VALID,1006.87,VALID,0,VALID,88.718,VALID,0.112112,VALID,22.8545,VALID,301,VALID,0,
2014-02-06, 02:18:04,VALID,1006.9,VALID,0,VALID,88.6723,VALID,0.112112,VALID,22.835,VALID,301,VALID,0,
2014-02-06, 02:19:04,VALID,1006.91,VALID,0,VALID,88.6418,VALID,0,VALID,22.7978,VALID,301,VALID,0,
2014-02-06, 02:20:04,VALID,1006.9,VALID,0,VALID,88.8934,VALID,0,VALID,22.7766,VALID,300,VALID,0.349219,
2014-02-06, 02:21:04,VALID,1006.93,VALID,0,VALID,89.1298,VALID,0,VALID,22.7571,VALID,298,VALID,0,
2014-02-06, 02:22:04,VALID,1006.92,VALID,0,VALID,89.0688,VALID,0,VALID,22.7588,VALID,298,VALID,0,
2014-02-06, 02:23:04,VALID,1006.92,VALID,0,VALID,89.1908,VALID,0.112112,VALID,22.7182,VALID,298,VALID,0,
2014-02-06, 02:24:04,VALID,1006.9,VALID,0,VALID,89.3891,VALID,0.112112,VALID,22.6809,VALID,298,VALID,0,
2014-02-06, 02:25:04,VALID,1006.88,VALID,0,VALID,89.4882,VALID,0.112112,VALID,22.6208,VALID,309,VALID,0.822266,
2014-02-06, 02:26:04,VALID,1006.89,VALID,0,VALID,89.7932,VALID,0.112112,VALID,22.6013,VALID,310,VALID,0,
2014-02-06, 02:27:04,VALID,1006.88,VALID,0,VALID,89.7017,VALID,0.112112,VALID,22.5623,VALID,310,VALID,0.00507812,
2014-02-06, 02:28:04,VALID,1006.87,VALID,0,VALID,90.3804,VALID,0,VALID,22.5429,VALID,310,VALID,0,
2014-02-06, 02:29:04,VALID,1006.84,VALID,0,VALID,90.3042,VALID,0.112112,VALID,22.4844,VALID,310,VALID,0.108984,
2014-02-06, 02:30:04,VALID,1006.86,VALID,0,VALID,91.2726,VALID,0.112112,VALID,22.465,VALID,309,VALID,0.0210938,
2014-02-06, 02:31:04,VALID,1006.82,VALID,0,VALID,92.3174,VALID,0.112112,VALID,22.4438,VALID,310,VALID,0.548828,
2014-02-06, 02:32:04,VALID,1006.81,VALID,0,VALID,94.0179,VALID,0,VALID,22.465,VALID,310,VALID,0.394141,
2014-02-06, 02:33:04,VALID,1006.8,VALID,0,VALID,93.9112,VALID,0.112112,VALID,22.426,VALID,310,VALID,0.213281,
2014-02-06, 02:34:04,VALID,1006.78,VALID,0,VALID,93.446,VALID,0.112112,VALID,22.4065,VALID,310,VALID,0,
2014-02-06, 02:35:04,VALID,1006.77,VALID,0,VALID,93.7053,VALID,0.112112,VALID,22.3676,VALID,310,VALID,0,
2014-02-06, 02:36:04,VALID,1006.76,VALID,0,VALID,95.5888,VALID,0.112112,VALID,22.387,VALID,310,VALID,0,
2014-02-06, 02:37:04,VALID,1006.74,VALID,0,VALID,96.3895,VALID,0.112112,VALID,22.387,VALID,310,VALID,0,
2014-02-06, 02:38:04,VALID,1006.76,VALID,0,VALID,95.9244,VALID,0.112112,VALID,22.3676,VALID,310,VALID,0,
2014-02-06, 02:39:04,VALID,1006.76,VALID,0,VALID,96.6412,VALID,0.112112,VALID,22.3676,VALID,309,VALID,0,
2014-02-06, 02:40:04,VALID,1006.74,VALID,0,VALID,96.4124,VALID,0,VALID,22.3693,VALID,310,VALID,0,
2014-02-06, 02:41:04,VALID,1006.74,VALID,0,VALID,96.4734,VALID,0.112112,VALID,22.3481,VALID,309,VALID,0,
2014-02-06, 02:42:04,VALID,1006.75,VALID,0,VALID,96.7403,VALID,0.112112,VALID,22.3286,VALID,309,VALID,0,
2014-02-06, 02:43:04,VALID,1006.76,VALID,0,VALID,96.6717,VALID,0,VALID,22.3091,VALID,309,VALID,0,
2014-02-06, 02:44:04,VALID,1006.76,VALID,0,VALID,96.3438,VALID,0,VALID,22.2702,VALID,309,VALID,0,
2014-02-06, 02:45:04,VALID,1006.78,VALID,0,VALID,96.2523,VALID,0.112112,VALID,22.2312,VALID,310,VALID,0,
2014-02-06, 02:46:04,VALID,1006.8,VALID,0,VALID,96.4582,VALID,0.112112,VALID,22.2118,VALID,310,VALID,0,
2014-02-06, 02:47:04,VALID,1006.76,VALID,0,VALID,97.0606,VALID,0.112112,VALID,22.2118,VALID,309,VALID,0,
2014-02-06, 02:48:04,VALID,1006.77,VALID,0,VALID,97.0758,VALID,0,VALID,22.1533,VALID,309,VALID,0,
2014-02-06, 02:49:04,VALID,1006.79,VALID,0,VALID,97.3199,VALID,0.112112,VALID,22.1745,VALID,309,VALID,0,
2014-02-06, 02:50:04,VALID,1006.8,VALID,0,VALID,97.7698,VALID,0,VALID,22.1339,VALID,310,VALID,0,
2014-02-06, 02:51:04,VALID,1006.82,VALID,0,VALID,97.7774,VALID,0.112112,VALID,22.1144,VALID,310,VALID,0,
2014-02-06, 02:52:04,VALID,1006.8,VALID,0,VALID,98.1892,VALID,0.112112,VALID,22.0754,VALID,310,VALID,0,
2014-02-06, 02:53:04,VALID,1006.83,VALID,0,VALID,98.6772,VALID,0,VALID,22.0949,VALID,309,VALID,0,
2014-02-06, 02:54:04,VALID,1006.84,VALID,0,VALID,98.4714,VALID,0.112112,VALID,22.0365,VALID,310,VALID,0,
2014-02-06, 02:55:04,VALID,1006.85,VALID,0,VALID,98.7459,VALID,0.112112,VALID,22.0365,VALID,309,VALID,0,
2014-02-06, 02:56:04,VALID,1006.84,VALID,0,VALID,98.7535,VALID,0.112112,VALID,21.9781,VALID,310,VALID,0,
2014-02-06, 02:57:04,VALID,1006.85,VALID,0,VALID,99.0738,VALID,0.112112,VALID,21.9992,VALID,310,VALID,0.138672,
2014-02-06, 02:58:04,VALID,1006.81,VALID,0,VALID,99.4169,VALID,0.112112,VALID,22.0187,VALID,309,VALID,0,
2014-02-06, 02:59:04,VALID,1006.8,VALID,0,VALID,99.6686,VALID,0.112112,VALID,21.9975,VALID,310,VALID,0,
2014-02-06, 03:00:04,VALID,1006.77,VALID,0,VALID,99.9508,VALID,0.112112,VALID,21.9781,VALID,309,VALID,0,
2014-02-06, 03:01:04,VALID,1006.78,VALID,0,VALID,100.058,VALID,0.112112,VALID,21.9781,VALID,310,VALID,0,
2014-02-06, 03:02:04,VALID,1006.75,VALID,0,VALID,100.126,VALID,0,VALID,21.9781,VALID,310,VALID,0,
2014-02-06, 03:03:04,VALID,1006.75,VALID,0,VALID,100.103,VALID,0.112112,VALID,21.9391,VALID,310,VALID,0,
2014-02-06, 03:04:04,VALID,1006.72,VALID,0,VALID,100.225,VALID,0,VALID,21.9213,VALID,310,VALID,0,
2014-02-06, 03:05:04,VALID,1006.71,VALID,0,VALID,100.416,VALID,0.112112,VALID,21.9391,VALID,309,VALID,0,
2014-02-06, 03:06:04,VALID,1006.68,VALID,0,VALID,100.744,VALID,0,VALID,21.9391,VALID,310,VALID,0,
2014-02-06, 03:07:04,VALID,1006.7,VALID,0,VALID,100.927,VALID,0,VALID,21.9391,VALID,310,VALID,0,
2014-02-06, 03:08:04,VALID,1006.68,VALID,0,VALID,101.003,VALID,0,VALID,21.9586,VALID,309,VALID,0,
2014-02-06, 03:09:04,VALID,1006.7,VALID,0,VALID,100.965,VALID,0,VALID,21.9196,VALID,310,VALID,0,
2014-02-06, 03:10:04,VALID,1006.71,VALID,0,VALID,100.851,VALID,0.112112,VALID,21.8807,VALID,310,VALID,0,
2014-02-06, 03:11:04,VALID,1006.74,VALID,0,VALID,101.072,VALID,0,VALID,21.9018,VALID,310,VALID,0,
2014-02-06, 03:12:04,VALID,1006.74,VALID,0,VALID,101.323,VALID,0,VALID,21.9196,VALID,309,VALID,0,
2014-02-06, 03:13:04,VALID,1006.7,VALID,0,VALID,101.506,VALID,0,VALID,21.9408,VALID,310,VALID,0,
2014-02-06, 03:14:04,VALID,1006.72,VALID,0,VALID,101.682,VALID,0,VALID,21.9586,VALID,309,VALID,0,
2014-02-06, 03:15:04,VALID,1006.72,VALID,0,VALID,101.75,VALID,0,VALID,21.9586,VALID,310,VALID,0,
2014-02-06, 03:16:04,VALID,1006.72,VALID,0,VALID,101.705,VALID,0.112112,VALID,21.9797,VALID,310,VALID,0,
2014-02-06, 03:17:04,VALID,1006.72,VALID,0,VALID,101.911,VALID,0,VALID,22.0187,VALID,310,VALID,0,
2014-02-06, 03:18:04,VALID,1006.72,VALID,0,VALID,101.834,VALID,0,VALID,21.9992,VALID,309,VALID,0,
2014-02-06, 03:19:04,VALID,1006.71,VALID,0,VALID,102.002,VALID,0,VALID,22.0187,VALID,309,VALID,0,
2014-02-06, 03:20:04,VALID,1006.71,VALID,0,VALID,101.941,VALID,0,VALID,22.0382,VALID,309,VALID,0,
2014-02-06, 03:21:04,VALID,1006.71,VALID,0,VALID,101.88,VALID,0,VALID,22.0187,VALID,310,VALID,0,
2014-02-06, 03:22:04,VALID,1006.73,VALID,0,VALID,101.834,VALID,0,VALID,21.9975,VALID,310,VALID,0,
2014-02-06, 03:23:04,VALID,1006.72,VALID,0,VALID,101.796,VALID,0,VALID,22.0187,VALID,309,VALID,0,
2014-02-06, 03:24:04,VALID,1006.71,VALID,0,VALID,101.689,VALID,0,VALID,22.0187,VALID,310,VALID,0,
2014-02-06, 03:25:04,VALID,1006.72,VALID,0,VALID,101.72,VALID,0.112112,VALID,21.9975,VALID,309,VALID,0,
2014-02-06, 03:26:04,VALID,1006.71,VALID,0,VALID,101.697,VALID,0,VALID,21.9992,VALID,310,VALID,0,
2014-02-06, 03:27:04,VALID,1006.73,VALID,0,VALID,101.636,VALID,0,VALID,21.9797,VALID,309,VALID,0,
2014-02-06, 03:28:04,VALID,1006.78,VALID,0,VALID,101.789,VALID,0,VALID,21.9797,VALID,309,VALID,0,
2014-02-06, 03:29:04,VALID,1006.77,VALID,0,VALID,101.789,VALID,0,VALID,21.9781,VALID,310,VALID,0,
2014-02-06, 03:30:04,VALID,1006.75,VALID,0,VALID,101.85,VALID,0,VALID,21.9992,VALID,310,VALID,0,
2014-02-06, 03:31:04,VALID,1006.76,VALID,0,VALID,102.017,VALID,0,VALID,22.0187,VALID,309,VALID,0,
2014-02-06, 03:32:04,VALID,1006.76,VALID,0,VALID,101.72,VALID,0,VALID,21.9797,VALID,309,VALID,0,
2014-02-06, 03:33:04,VALID,1006.78,VALID,0,VALID,101.59,VALID,0.112112,VALID,21.9196,VALID,310,VALID,0,
2014-02-06, 03:34:04,VALID,1006.79,VALID,0,VALID,101.811,VALID,0,VALID,21.9603,VALID,310,VALID,0,
2014-02-06, 03:35:04,VALID,1006.79,VALID,0,VALID,101.949,VALID,0,VALID,21.9603,VALID,309,VALID,0,
2014-02-06, 03:36:04,VALID,1006.82,VALID,0,VALID,102.063,VALID,0,VALID,21.9586,VALID,310,VALID,0,
2014-02-06, 03:37:04,VALID,1006.82,VALID,0,VALID,101.918,VALID,0,VALID,21.9196,VALID,309,VALID,0,
2014-02-06, 03:38:04,VALID,1006.85,VALID,0,VALID,101.918,VALID,0,VALID,21.9408,VALID,309,VALID,0,
2014-02-06, 03:39:04,VALID,1006.81,VALID,0,VALID,101.773,VALID,0,VALID,21.8612,VALID,310,VALID,0,
2014-02-06, 03:40:04,VALID,1006.82,VALID,0,VALID,101.811,VALID,0,VALID,21.8418,VALID,309,VALID,0,
2014-02-06, 03:41:04,VALID,1006.81,VALID,0,VALID,101.987,VALID,0,VALID,21.8434,VALID,310,VALID,0,
2014-02-06, 03:42:04,VALID,1006.79,VALID,0,VALID,101.766,VALID,0,VALID,21.785,VALID,310,VALID,0,
2014-02-06, 03:43:04,VALID,1006.78,VALID,0,VALID,101.903,VALID,0,VALID,21.746,VALID,309,VALID,0,
2014-02-06, 03:44:04,VALID,1006.8,VALID,0,VALID,102.177,VALID,0,VALID,21.7655,VALID,309,VALID,0,
2014-02-06, 03:45:04,VALID,1006.75,VALID,0,VALID,102.2,VALID,0,VALID,21.746,VALID,309,VALID,0,
2014-02-06, 03:46:04,VALID,1006.75,VALID,0,VALID,101.949,VALID,0,VALID,21.647,VALID,309,VALID,0,
2014-02-06, 03:47:04,VALID,1006.75,VALID,0,VALID,101.949,VALID,0,VALID,21.5886,VALID,309,VALID,0,
2014-02-06, 03:48:04,VALID,1006.73,VALID,0,VALID,102.147,VALID,0,VALID,21.5902,VALID,310,VALID,0,
2014-02-06, 03:49:04,VALID,1006.75,VALID,0,VALID,102.277,VALID,0.112112,VALID,21.5497,VALID,310,VALID,0,